Location: Unspecified
(45.3712°N, 0.6436°E)
Time: 19:22:35
(UTC+02:00)

ISS - Visible Passes

Search period start: 19 September 2018 00:00
Search period end: 29 September 2018 00:00
Orbit: 402 x 408 km, 51.6° (Epoch: 20 September)

Date Brightness Start Highest point End Pass type
(mag) Time Alt. Az. Time Alt. Az. Time Alt. Az.
21 Sep -2.1 21:15:55 10° S 21:17:41 19° SSE 21:17:41 19° SSE visible
22 Sep -1.7 20:25:22 10° SSE 20:26:43 12° SE 20:28:04 10° ESE visible
22 Sep -2.3 21:59:26 10° SW 22:01:16 31° SW 22:01:16 31° SW visible
23 Sep -3.5 21:07:37 10° SW 21:10:47 45° SE 21:11:53 31° E visible
23 Sep -0.6 22:44:12 10° W 22:44:35 13° W 22:44:35 13° W visible
24 Sep -3.1 21:51:58 10° WSW 21:55:00 53° NW 21:55:00 53° NW visible
25 Sep -3.8 20:59:51 10° WSW 21:03:09 86° NNW 21:05:16 20° ENE visible
25 Sep -0.7 22:37:00 10° WNW 22:37:57 16° WNW 22:37:57 16° WNW visible
26 Sep -2.5 21:44:41 10° W 21:47:45 35° NNW 21:48:05 34° N visible
27 Sep -3.0 20:52:23 10° W 20:55:35 47° NNW 20:58:08 15° NE visible
27 Sep -0.8 22:29:44 10° WNW 22:30:48 17° NW 22:30:48 17° NW visible
28 Sep -2.2 21:37:25 10° WNW 21:40:20 28° N 21:40:46 27° N visible
